OK1VCF-8 Weather Reports


time (UTC)temp
C
wind
direction
speed
KPH
gust
KPH
rain 1hr
cm
rain 24hr
cm
rain mn
cm
humidity
%
barometer
mb
20260831002249 17 0 0.0 0.0 0.00 0.00 0.00 80 1016.2
20260831001514 17 0 0.0 0.0 0.00 0.00 0.00 80 1016.2
20260831000737 17 0 0.0 0.0 0.00 0.00 0.00 80 1016.2
20260831000002 17 0 0.0 0.0 0.00 0.00 0.00 80 1016.4
20260830235225 17 0 0.0 0.0 0.00 0.00 0.00 79 1016.1
20260830234448 17 0 0.0 0.0 0.00 0.00 0.00 78 1016.2
20260830233716 18 0 0.0 0.0 0.00 0.00 0.00 76 1016.2
20260830232701 18 0 0.0 0.0 0.00 0.00 0.00 76 1016.4
20260830231934 18 0 0.0 0.0 0.00 0.00 0.00 76 1016.4
20260830231212 18 0 0.0 0.0 0.00 0.00 0.00 75 1016.3
20260830230455 18 0 0.0 0.0 0.00 0.00 0.00 74 1016.4
20260830225737 18 0 0.0 0.0 0.00 0.00 0.00 76 1016.4
20260830225019 18 0 0.0 0.0 0.00 0.00 0.00 76 1016.4
20260830224301 18 0 0.0 0.0 0.00 0.00 0.00 75 1016.5
20260830223544 19 0 0.0 0.0 0.00 0.00 0.00 74 1016.4
20260830222828 20 0 0.0 0.0 0.00 0.00 0.00 72 1016.5
20260830222111 20 0 0.0 0.0 0.00 0.00 0.00 72 1016.4
20260830221353 19 0 0.0 0.0 0.00 0.00 0.00 74 1016.4
20260830220635 18 0 0.0 0.0 0.00 0.00 0.00 74 1016.4
20260830215917 18 0 0.0 0.0 0.00 0.00 0.00 76 1016.3
20260830215200 18 0 0.0 0.0 0.00 0.00 0.00 74 1016.4
20260830214441 18 0 0.0 0.0 0.00 0.00 0.00 74 1016.4
20260830213440 18 0 0.0 0.0 0.00 0.00 0.00 72 1016.4
20260830212723 18 0 0.0 0.0 0.00 0.00 0.00 72 1016.4
20260830212005 18 0 0.0 0.0 0.00 0.00 0.00 72 1016.4
20260830211247 18 0 0.0 0.0 0.00 0.00 0.00 72 1016.5
20260830210529 19 0 0.0 0.0 0.00 0.00 0.00 71 1016.5
20260830205811 20 0 0.0 0.0 0.00 0.00 0.00 71 1016.6
20260830205054 20 0 0.0 0.0 0.00 0.00 0.00 72 1016.5
20260830204335 20 0 0.0 0.0 0.00 0.00 0.00 72 1016.6
20260830203618 20 0 0.0 0.0 0.00 0.00 0.00 71 1016.4
20260830202859 20 0 0.0 0.0 0.00 0.00 0.00 70 1016.5
20260830202141 20 0 0.0 0.0 0.00 0.00 0.00 69 1016.5
20260830201423 20 0 0.0 0.0 0.00 0.00 0.00 68 1016.5
20260830200706 20 0 0.0 0.0 0.00 0.00 0.00 67 1016.4
20260830195946 21 0 0.0 0.0 0.00 0.00 0.00 66 1016.3
20260830195227 21 0 0.0 0.0 0.00 0.00 0.00 65 1016.4
20260830194224 21 0 0.0 0.0 0.00 0.00 0.00 64 1016.4
20260830193505 21 0 0.0 0.0 0.00 0.00 0.00 64 1016.4
20260830192747 21 0 0.0 0.0 0.00 0.00 0.00 64 1016.4
20260830192028 21 0 0.0 0.0 0.00 0.00 0.00 64 1016.2
20260830191310 21 0 0.0 0.0 0.00 0.00 0.00 64 1016.2
20260830190551 21 0 0.0 0.0 0.00 0.00 0.00 64 1016.2
20260830185833 21 0 0.0 0.0 0.00 0.00 0.00 64 1016.2
20260830185116 21 0 0.0 0.0 0.00 0.00 0.00 64 1016.1
20260830184358 21 0 0.0 0.0 0.00 0.00 0.00 64 1016.1
20260830183642 21 0 0.0 0.0 0.00 0.00 0.00 62 1016.0
20260830182920 21 0 0.0 0.0 0.00 0.00 0.00 62 1015.8
20260830182203 21 0 0.0 0.0 0.00 0.00 0.00 62 1015.8
20260830181445 22 0 0.0 0.0 0.00 0.00 0.00 61 1015.8
20260830180723 22 0 0.0 0.0 0.00 0.00 0.00 61 1015.6
20260830180001 22 0 0.0 0.0 0.00 0.00 0.00 60 1015.4
20260830174958 22 0 0.0 0.0 0.00 0.00 0.00 58 1015.6
20260830174238 23 0 0.0 0.0 0.00 0.00 0.00 56 1015.5
20260830173522 23 0 0.0 0.0 0.00 0.00 0.00 55 1015.4
20260830172803 23 0 0.0 0.0 0.00 0.00 0.00 54 1015.4
20260830172043 24 0 0.0 0.0 0.00 0.00 0.00 52 1015.4
20260830171327 24 0 0.0 0.0 0.00 0.00 0.00 52 1015.3
20260830170608 25 0 0.0 0.0 0.00 0.00 0.00 50 1015.3
20260830165847 25 0 0.0 0.0 0.00 0.00 0.00 50 1015.2
20260830165129 25 0 0.0 0.0 0.00 0.00 0.00 48 1015.2
20260830164411 26 0 0.0 0.0 0.00 0.00 0.00 46 1015.2
20260830163653 26 0 0.0 0.0 0.00 0.00 0.00 45 1015.2
20260830162933 26 0 0.0 0.0 0.00 0.00 0.00 45 1015.2
20260830162215 26 0 0.0 0.0 0.00 0.00 0.00 44 1015.2
20260830161455 26 0 0.0 0.0 0.00 0.00 0.00 42 1015.2
20260830160736 27 0 0.0 0.0 0.00 0.00 0.00 42 1015.2
20260830155732 28 0 0.0 0.0 0.00 0.00 0.00 40 1015.2
20260830155013 27 0 0.0 0.0 0.00 0.00 0.00 40 1015.2
20260830154255 28 0 0.0 0.0 0.00 0.00 0.00 36 1015.2
20260830153537 31 0 0.0 0.0 0.00 0.00 0.00 36 1015.2
20260830152818 30 0 0.0 0.0 0.00 0.00 0.00 38 1015.2
20260830152059 28 0 0.0 0.0 0.00 0.00 0.00 38 1015.4
20260830151342 31 0 0.0 0.0 0.00 0.00 0.00 34 1015.4
20260830150625 27 0 0.0 0.0 0.00 0.00 0.00 41 1015.4
20260830145906 27 0 0.0 0.0 0.00 0.00 0.00 41 1015.6
20260830145146 27 0 0.0 0.0 0.00 0.00 0.00 40 1015.5
20260830144428 28 0 0.0 0.0 0.00 0.00 0.00 41 1015.4
20260830143710 27 0 0.0 0.0 0.00 0.00 0.00 42 1015.4
20260830142949 27 0 0.0 0.0 0.00 0.00 0.00 42 1015.4
20260830142232 27 0 0.0 0.0 0.00 0.00 0.00 41 1015.4
20260830141511 27 0 0.0 0.0 0.00 0.00 0.00 41 1015.6
20260830135045 26 0 0.0 0.0 0.00 0.00 0.00 43 1015.4
20260830134326 27 0 0.0 0.0 0.00 0.00 0.00 43 1015.6
20260830133607 27 0 0.0 0.0 0.00 0.00 0.00 43 1015.6
20260830132847 26 0 0.0 0.0 0.00 0.00 0.00 42 1015.7
20260830132130 27 0 0.0 0.0 0.00 0.00 0.00 42 1015.7
20260830131410 26 0 0.0 0.0 0.00 0.00 0.00 44 1015.8
20260830130652 27 0 0.0 0.0 0.00 0.00 0.00 42 1015.8
20260830125925 26 0 0.0 0.0 0.00 0.00 0.00 42 1015.8
20260830125152 26 0 0.0 0.0 0.00 0.00 0.00 42 1015.8
20260830124414 27 0 0.0 0.0 0.00 0.00 0.00 44 1015.8
20260830123637 26 0 0.0 0.0 0.00 0.00 0.00 43 1015.8
20260830122903 26 0 0.0 0.0 0.00 0.00 0.00 44 1015.9
20260830122130 26 0 0.0 0.0 0.00 0.00 0.00 45 1015.8
20260830121059 26 0 0.0 0.0 0.00 0.00 0.00 44 1015.9
20260830120321 27 0 0.0 0.0 0.00 0.00 0.00 44 1016.0
20260830115535 27 0 0.0 0.0 0.00 0.00 0.00 44 1016.0
20260830114757 27 0 0.0 0.0 0.00 0.00 0.00 43 1016.0
20260830114019 27 0 0.0 0.0 0.00 0.00 0.00 43 1016.0
20260830113249 27 0 0.0 0.0 0.00 0.00 0.00 44 1016.2
20260830112520 26 0 0.0 0.0 0.00 0.00 0.00 46 1016.1
20260830111758 25 0 0.0 0.0 0.00 0.00 0.00 48 1016.2
20260830111040 26 0 0.0 0.0 0.00 0.00 0.00 48 1016.2
20260830110322 26 0 0.0 0.0 0.00 0.00 0.00 47 1016.2
20260830105600 25 0 0.0 0.0 0.00 0.00 0.00 48 1016.2
20260830104842 25 0 0.0 0.0 0.00 0.00 0.00 48 1016.2
20260830104123 26 0 0.0 0.0 0.00 0.00 0.00 48 1016.2
20260830103405 25 0 0.0 0.0 0.00 0.00 0.00 50 1016.2
20260830102645 25 0 0.0 0.0 0.00 0.00 0.00 49 1016.4
20260830101640 26 0 0.0 0.0 0.00 0.00 0.00 48 1016.5
20260830100920 25 0 0.0 0.0 0.00 0.00 0.00 50 1016.6
20260830100201 25 0 0.0 0.0 0.00 0.00 0.00 50 1016.5
20260830095441 24 0 0.0 0.0 0.00 0.00 0.00 52 1016.8
20260830094722 24 0 0.0 0.0 0.00 0.00 0.00 52 1016.8
20260830094004 24 0 0.0 0.0 0.00 0.00 0.00 51 1016.6
20260830093246 24 0 0.0 0.0 0.00 0.00 0.00 52 1016.7
20260830092525 24 0 0.0 0.0 0.00 0.00 0.00 52 1016.6
20260830091807 24 0 0.0 0.0 0.00 0.00 0.00 52 1016.7
20260830091047 24 0 0.0 0.0 0.00 0.00 0.00 53 1016.6
20260830090327 24 0 0.0 0.0 0.00 0.00 0.00 53 1016.8
20260830085609 23 0 0.0 0.0 0.00 0.00 0.00 53 1016.7
20260830084851 24 0 0.0 0.0 0.00 0.00 0.00 54 1016.8
20260830084133 23 0 0.0 0.0 0.00 0.00 0.00 55 1016.8
20260830083416 23 0 0.0 0.0 0.00 0.00 0.00 55 1017.0
20260830082413 23 0 0.0 0.0 0.00 0.00 0.00 55 1017.0
20260830081654 23 0 0.0 0.0 0.00 0.00 0.00 56 1016.8
20260830080936 23 0 0.0 0.0 0.00 0.00 0.00 56 1016.8
20260830080218 24 0 0.0 0.0 0.00 0.00 0.00 54 1016.9
20260830072615 22 0 0.0 0.0 0.00 0.00 0.00 61 1016.8
20260830071857 21 0 0.0 0.0 0.00 0.00 0.00 62 1016.8
20260830071136 21 0 0.0 0.0 0.00 0.00 0.00 62 1016.8
20260830070410 21 0 0.0 0.0 0.00 0.00 0.00 62 1016.8
20260830065644 21 0 0.0 0.0 0.00 0.00 0.00 63 1016.8
20260830064920 21 0 0.0 0.0 0.00 0.00 0.00 64 1016.8
20260830064157 20 0 0.0 0.0 0.00 0.00 0.00 66 1016.7
20260830063146 18 0 0.0 0.0 0.00 0.00 0.00 68 1016.7
20260830062419 18 0 0.0 0.0 0.00 0.00 0.00 69 1016.7
20260830061655 18 0 0.0 0.0 0.00 0.00 0.00 68 1016.7
20260830060932 18 0 0.0 0.0 0.00 0.00 0.00 68 1016.8
20260830060208 19 0 0.0 0.0 0.00 0.00 0.00 68 1016.8
20260830055445 18 0 0.0 0.0 0.00 0.00 0.00 68 1016.7
20260830054727 18 0 0.0 0.0 0.00 0.00 0.00 68 1016.6
20260830054010 18 0 0.0 0.0 0.00 0.00 0.00 69 1016.6
20260830053252 18 0 0.0 0.0 0.00 0.00 0.00 69 1016.6
20260830052534 18 0 0.0 0.0 0.00 0.00 0.00 68 1016.6
20260830051817 18 0 0.0 0.0 0.00 0.00 0.00 68 1016.6
20260830051100 18 0 0.0 0.0 0.00 0.00 0.00 70 1016.5
20260830050343 18 0 0.0 0.0 0.00 0.00 0.00 70 1016.4
20260830045625 18 0 0.0 0.0 0.00 0.00 0.00 70 1016.4
20260830044905 18 0 0.0 0.0 0.00 0.00 0.00 70 1016.4
20260830043904 17 0 0.0 0.0 0.00 0.00 0.00 72 1016.4
20260830043148 17 0 0.0 0.0 0.00 0.00 0.00 72 1016.4
20260830042428 17 0 0.0 0.0 0.00 0.00 0.00 72 1016.4
20260830041710 17 0 0.0 0.0 0.00 0.00 0.00 72 1016.4
20260830040954 17 0 0.0 0.0 0.00 0.00 0.00 74 1016.4
20260830040235 16 0 0.0 0.0 0.00 0.00 0.00 74 1016.3
20260830035516 16 0 0.0 0.0 0.00 0.00 0.00 74 1016.4
20260830034758 16 0 0.0 0.0 0.00 0.00 0.00 75 1016.2
20260830034041 16 0 0.0 0.0 0.00 0.00 0.00 74 1016.2
20260830033323 16 0 0.0 0.0 0.00 0.00 0.00 75 1016.1
20260830032605 16 0 0.0 0.0 0.00 0.00 0.00 76 1016.2
20260830031847 16 0 0.0 0.0 0.00 0.00 0.00 76 1016.3
20260830031130 16 0 0.0 0.0 0.00 0.00 0.00 76 1016.4
20260830030411 16 0 0.0 0.0 0.00 0.00 0.00 76 1016.4
20260830025652 16 0 0.0 0.0 0.00 0.00 0.00 76 1016.4
20260830024651 16 0 0.0 0.0 0.00 0.00 0.00 76 1016.4
20260830023933 16 0 0.0 0.0 0.00 0.00 0.00 76 1016.4
20260830023216 16 0 0.0 0.0 0.00 0.00 0.00 74 1016.3
20260830022457 16 0 0.0 0.0 0.00 0.00 0.00 74 1016.4
20260830021741 16 0 0.0 0.0 0.00 0.00 0.00 76 1016.4
20260830021023 16 0 0.0 0.0 0.00 0.00 0.00 76 1016.5
20260830020306 16 0 0.0 0.0 0.00 0.00 0.00 77 1016.3
20260830015551 15 0 0.0 0.0 0.00 0.00 0.00 78 1016.4
20260830014832 15 0 0.0 0.0 0.00 0.00 0.00 78 1016.4
20260830014114 15 0 0.0 0.0 0.00 0.00 0.00 78 1016.6
20260830013358 15 0 0.0 0.0 0.00 0.00 0.00 78 1016.8
20260830012640 15 0 0.0 0.0 0.00 0.00 0.00 78 1016.8
20260830011920 15 0 0.0 0.0 0.00 0.00 0.00 77 1016.8
20260830011147 16 0 0.0 0.0 0.00 0.00 0.00 76 1016.8
20260830010410 16 0 0.0 0.0 0.00 0.00 0.00 75 1016.8
20260830005337 16 0 0.0 0.0 0.00 0.00 0.00 74 1016.8
20260830004602 16 0 0.0 0.0 0.00 0.00 0.00 73 1016.8
20260830003829 17 0 0.0 0.0 0.00 0.00 0.00 72 1016.8
20260830003053 17 0 0.0 0.0 0.00 0.00 0.00 72 1016.7